Date String (YYYY-MM-DD hh:mm:ss) UTC,Instrument flags,Ambient pressure (hPa),Sample flow (lpm),Bypass flow (lpm),Sample temperature (°C),Ambient temperature (°C),ASC tube jacket temperature (°C),LED temperature (°C),Box temperature (°C),Sample RH (%),Span deviation,Mass concentration (μg/m³),Mass concentration (μg/m³),Mass concentration (μg/m³)
DateTimeUTC,F1_M11,P_M11,Q1_M11,Q2_M11,T1_M11,T2_M11,T3_M11,T4_M11,T5_M11,U1_M11,ZSPAN_M11,X0_M11,X2_M11,X1_M11
2022-07-07 23:00:00,,0830.1,5.01,0.00,29.2,27.5,00.0,37.9,31.1,32.1,0000.0,0012.52,0003.39,0002.07
2022-07-07 23:01:00,,0830.1,5.00,0.00,29.2,27.7,00.0,38.0,31.2,32.1,0000.0,0012.81,0003.41,0002.07
2022-07-07 23:02:00,,0830.1,5.00,0.00,29.3,27.9,00.0,38.0,31.3,32.6,0000.0,0012.84,0003.37,0002.05
2022-07-07 23:03:00,,0830.0,5.00,0.00,29.3,28.1,00.0,38.0,31.3,32.7,0000.0,0012.63,0003.35,0002.03
2022-07-07 23:04:00,,0830.1,5.00,0.00,29.3,28.2,00.0,38.0,31.4,33.5,0000.0,0012.33,0003.32,0002.03
2022-07-07 23:05:00,,0830.1,5.00,0.00,29.4,28.4,00.0,38.0,31.4,32.2,0000.0,0012.24,0003.28,0002.02
2022-07-07 23:06:00,,0830.1,5.00,0.00,29.4,28.0,00.0,38.0,31.4,32.4,0000.0,0011.85,0003.29,0002.00
2022-07-07 23:07:00,,0830.1,5.00,0.00,29.4,27.3,00.0,37.9,31.3,31.0,0000.0,0011.44,0003.28,0001.98
2022-07-07 23:08:00,,0830.1,5.01,0.00,29.4,27.0,00.0,37.9,31.2,30.4,0000.0,0011.55,0003.27,0001.96
2022-07-07 23:09:00,,0830.1,5.00,0.00,29.3,26.9,00.0,37.9,31.1,29.1,0000.0,0011.03,0003.28,0001.94
2022-07-07 23:10:00,,0830.1,5.00,0.00,29.2,27.1,00.0,37.9,31.0,30.1,0000.0,0010.99,0003.29,0001.93
2022-07-07 23:11:00,,0830.1,5.00,0.00,29.2,27.3,00.0,37.9,31.1,31.9,0000.0,0010.93,0003.30,0001.92
2022-07-07 23:12:00,,0830.1,5.00,0.00,29.2,27.5,00.0,38.0,31.1,31.6,0000.0,0010.96,0003.28,0001.89
2022-07-07 23:13:00,,0830.1,4.99,0.00,29.2,27.7,00.0,38.0,31.2,30.2,0000.0,0011.89,0003.26,0001.86
2022-07-07 23:14:00,,0830.1,4.99,0.00,29.3,27.9,00.0,38.0,31.3,29.9,0000.0,0012.03,0003.23,0001.83
2022-07-07 23:15:00,,0830.2,5.00,0.00,29.3,28.1,00.0,38.0,31.3,29.5,0000.0,0013.36,0003.18,0001.78
2022-07-07 23:16:00,,0830.2,5.00,0.00,29.3,28.2,00.0,38.0,31.4,28.8,0000.0,0013.74,0003.12,0001.74
2022-07-07 23:17:00,,0830.2,5.01,0.00,29.4,28.3,00.0,38.0,31.4,29.3,0000.0,0013.85,0003.03,0001.73
2022-07-07 23:18:00,,0830.3,5.01,0.00,29.4,27.8,00.0,38.0,31.4,30.1,0000.0,0013.28,0002.93,0001.70
2022-07-07 23:19:00,,0830.2,5.00,0.00,29.4,27.2,00.0,37.9,31.3,30.4,0000.0,0012.79,0002.87,0001.68
2022-07-07 23:20:00,,0830.2,4.99,0.00,29.3,27.0,00.0,37.9,31.2,30.7,0000.0,0012.30,0002.78,0001.66
2022-07-07 23:21:00,,0830.2,5.01,0.00,29.3,27.0,00.0,38.0,31.1,30.0,0000.0,0011.63,0002.68,0001.63
2022-07-07 23:22:00,,0830.2,5.01,0.00,29.2,27.2,00.0,38.0,31.0,29.5,0000.0,0011.58,0002.60,0001.59
2022-07-07 23:23:00,,0830.2,5.00,0.00,29.2,27.4,00.0,38.0,31.1,29.5,0000.0,0011.36,0002.58,0001.57
2022-07-07 23:24:00,,0830.1,5.00,0.00,29.2,27.6,00.0,38.0,31.1,29.6,0000.0,0010.74,0002.53,0001.56
2022-07-07 23:25:00,,0830.1,5.00,0.00,29.3,27.8,00.0,38.0,31.2,29.7,0000.0,0010.54,0002.58,0001.58
2022-07-07 23:26:00,,0830.1,4.99,0.00,29.3,27.9,00.0,38.0,31.3,29.5,0000.0,0009.07,0002.59,0001.58
2022-07-07 23:27:00,,0830.1,5.00,0.00,29.3,28.1,00.0,38.0,31.3,29.5,0000.0,0008.50,0002.58,0001.59
2022-07-07 23:28:00,,0830.1,5.00,0.00,29.4,28.3,00.0,38.0,31.4,29.1,0000.0,0008.03,0002.55,0001.56
2022-07-07 23:29:00,,0830.2,4.99,0.00,29.4,28.4,00.0,38.1,31.5,29.1,0000.0,0008.04,0002.53,0001.55
2022-07-07 23:30:00,,0830.1,5.00,0.00,29.4,28.0,00.0,38.0,31.4,29.2,0000.0,0007.75,0002.61,0001.57
2022-07-07 23:31:00,,0830.1,5.01,0.00,29.4,27.3,00.0,38.0,31.3,28.9,0000.0,0007.94,0002.63,0001.59
2022-07-07 23:32:00,,0830.1,5.01,0.00,29.4,27.0,00.0,38.0,31.2,29.6,0000.0,0008.35,0002.64,0001.62
2022-07-07 23:33:00,,0830.1,5.00,0.00,29.3,27.0,00.0,38.0,31.1,29.3,0000.0,0009.30,0002.69,0001.64
2022-07-07 23:34:00,,0830.1,5.00,0.00,29.3,27.2,00.0,38.0,31.1,29.6,0000.0,0009.47,0002.66,0001.64
2022-07-07 23:35:00,,0830.1,5.01,0.00,29.3,27.3,00.0,38.0,31.1,29.3,0000.0,0008.73,0002.64,0001.65
2022-07-07 23:36:00,,0830.1,5.00,0.00,29.3,27.6,00.0,38.0,31.2,29.2,0000.0,0008.63,0002.57,0001.65
2022-07-07 23:37:00,,0830.1,5.00,0.00,29.3,27.8,00.0,38.0,31.3,28.9,0000.0,0008.90,0002.58,0001.65
2022-07-07 23:38:00,,0830.1,5.00,0.00,29.3,28.0,00.0,38.0,31.3,28.8,0000.0,0008.90,0002.63,0001.67
2022-07-07 23:39:00,,0830.1,4.99,0.00,29.4,28.1,00.0,38.0,31.4,28.8,0000.0,0008.68,0002.63,0001.69
2022-07-07 23:40:00,,0830.3,5.00,0.00,29.4,28.3,00.0,38.1,31.4,28.7,0000.0,0008.98,0002.73,0001.72
2022-07-07 23:41:00,,0830.3,5.01,0.00,29.4,28.4,00.0,38.1,31.5,28.9,0000.0,0009.40,0002.74,0001.71
2022-07-07 23:42:00,,0830.2,5.00,0.00,29.5,27.8,00.0,38.0,31.4,28.9,0000.0,0010.07,0002.74,0001.69
2022-07-07 23:43:00,,0830.3,5.00,0.00,29.4,27.3,00.0,38.0,31.3,28.8,0000.0,0010.29,0002.77,0001.68
2022-07-07 23:44:00,,0830.3,4.99,0.00,29.4,27.1,00.0,38.0,31.2,28.7,0000.0,0009.43,0002.77,0001.68
2022-07-07 23:45:00,,0830.4,4.99,0.00,29.3,27.1,00.0,38.0,31.2,29.0,0000.0,0009.71,0002.79,0001.69
2022-07-07 23:46:00,,0830.4,5.00,0.00,29.3,27.3,00.0,38.0,31.1,28.7,0000.0,0009.74,0002.83,0001.71
2022-07-07 23:47:00,,0830.4,5.00,0.00,29.3,27.5,00.0,38.0,31.2,28.3,0000.0,0010.12,0002.87,0001.73
2022-07-07 23:48:00,,0830.4,5.00,0.00,29.3,27.7,00.0,38.0,31.2,27.9,0000.0,0010.67,0002.93,0001.75
2022-07-07 23:49:00,,0830.4,5.00,0.00,29.3,27.9,00.0,38.0,31.3,28.0,0000.0,0010.69,0002.92,0001.76
2022-07-07 23:50:00,,0830.4,5.00,0.00,29.4,28.0,00.0,38.0,31.4,27.6,0000.0,0010.72,0002.97,0001.77
2022-07-07 23:51:00,,0830.4,5.00,0.00,29.4,28.2,00.0,38.1,31.4,28.8,0000.0,0010.48,0002.93,0001.77
2022-07-07 23:52:00,,0830.4,5.00,0.00,29.4,28.4,00.0,38.1,31.5,29.4,0000.0,0010.23,0002.88,0001.78
2022-07-07 23:53:00,,0830.4,5.00,0.00,29.5,28.3,00.0,38.1,31.5,29.8,0000.0,0009.56,0002.88,0001.81
2022-07-07 23:54:00,,0830.4,5.00,0.00,29.5,27.7,00.0,38.0,31.4,29.8,0000.0,0009.08,0002.92,0001.83
2022-07-07 23:55:00,,0830.4,5.01,0.00,29.4,27.3,00.0,38.0,31.3,29.5,0000.0,0009.49,0002.88,0001.83
2022-07-07 23:56:00,,0830.4,4.98,0.00,29.4,27.2,00.0,38.0,31.2,29.6,0000.0,0008.80,0002.90,0001.84
2022-07-07 23:57:00,,0830.4,4.99,0.00,29.3,27.2,00.0,38.0,31.1,29.5,0000.0,0009.56,0002.91,0001.85
2022-07-07 23:58:00,,0830.4,5.00,0.00,29.3,27.4,00.0,38.0,31.2,29.9,0000.0,0009.54,0002.91,0001.84
2022-07-07 23:59:00,,0830.4,4.99,0.00,29.3,27.6,00.0,38.0,31.2,29.1,0000.0,0008.57,0002.85,0001.83
